• In Germany
  • List of Countries
  • For 7 days
  • Water Temperature
  • Satellite Maps
  • Weather Map
  • Weather Widgets
  • user-avatar
    Login

    Hourly Weather Yulara

    Today, 19 August, Saturday

    Time Temperature Precipitation Wind Pressure Humidity
    00:00 +16°C° 0 mm 7 mps 722 mmHg 33%
    01:00 +16°C° 0 mm 7 mps 722 mmHg 34%
    02:00 +15°C° 0 mm 7 mps 722 mmHg 34%
    03:00 +14°C° 0 mm 6 mps 722 mmHg 36%
    04:00 +14°C° 0 mm 6 mps 722 mmHg 35%
    05:00 +13°C° 0 mm 6 mps 722 mmHg 35%
    06:00 +13°C° 0 mm 6 mps 722 mmHg 35%
    07:00 +14°C° 0 mm 7 mps 723 mmHg 33%
    08:00 +16°C° 0 mm 8 mps 723 mmHg 30%
    09:00 +17°C° 0 mm 9 mps 723 mmHg 27%
    10:00 +20°C° 0 mm 8 mps 723 mmHg 24%
    11:00 +22°C° 0 mm 8 mps 722 mmHg 22%
    12:00 +26°C° 0 mm 8 mps 722 mmHg 19%
    13:00 +27°C° 0 mm 8 mps 721 mmHg 19%
    14:00 +28°C° 0 mm 7 mps 721 mmHg 18%
    15:00 +29°C° 0 mm 7 mps 720 mmHg 17%
    16:00 +28°C° 0 mm 6 mps 720 mmHg 19%
    17:00 +27°C° 0 mm 6 mps 720 mmHg 20%
    18:00 +26°C° 0 mm 6 mps 719 mmHg 21%
    19:00 +24°C° 0 mm 7 mps 720 mmHg 22%
    20:00 +23°C° 0 mm 7 mps 720 mmHg 22%
    21:00 +22°C° 0 mm 8 mps 720 mmHg 23%
    22:00 +21°C° 0 mm 8 mps 720 mmHg 24%
    23:00 +20°C° 0 mm 8 mps 720 mmHg 25%

    Tomorrow, 20 August, Sunday

    Time Temperature Precipitation Wind Pressure Humidity
    00:00 +20°C° 0 mm 8 mps 720 mmHg 25%
    01:00 +18°C° 0 mm 7 mps 719 mmHg 26%
    02:00 +18°C° 0 mm 7 mps 719 mmHg 27%
    03:00 +17°C° 0 mm 6 mps 718 mmHg 28%
    04:00 +17°C° 0 mm 5 mps 718 mmHg 29%
    05:00 +17°C° 0 mm 5 mps 718 mmHg 30%
    06:00 +17°C° 0 mm 4 mps 718 mmHg 30%
    07:00 +19°C° 0 mm 5 mps 718 mmHg 27%
    08:00 +21°C° 0 mm 5 mps 719 mmHg 25%
    09:00 +23°C° 0 mm 6 mps 719 mmHg 22%
    10:00 +26°C° 0 mm 8 mps 719 mmHg 20%
    11:00 +29°C° 0 mm 9 mps 718 mmHg 18%
    12:00 +32°C° 0 mm 11 mps 718 mmHg 16%
    13:00 +33°C° 0 mm 11 mps 717 mmHg 16%
    14:00 +34°C° 0 mm 12 mps 717 mmHg 16%
    15:00 +34°C° 0 mm 12 mps 716 mmHg 16%
    16:00 +33°C° 0 mm 11 mps 716 mmHg 19%
    17:00 +31°C° 0 mm 9 mps 717 mmHg 21%
    18:00 +29°C° 0 mm 7 mps 717 mmHg 24%
    19:00 +26°C° 0 mm 7 mps 717 mmHg 28%
    20:00 +23°C° 0 mm 7 mps 718 mmHg 32%
    21:00 +21°C° 0 mm 7 mps 718 mmHg 36%
    22:00 +20°C° 0 mm 7 mps 718 mmHg 34%
    23:00 +20°C° 0 mm 6 mps 719 mmHg 32%

    Day after tomorrow, 21 August, Monday

    Time Temperature Precipitation Wind Pressure Humidity
    00:00 +19°C° 0 mm 6 mps 719 mmHg 30%
    01:00 +17°C° 0 mm 5 mps 719 mmHg 30%
    02:00 +16°C° 0 mm 5 mps 719 mmHg 29%
    03:00 +15°C° 0 mm 4 mps 719 mmHg 29%
    04:00 +14°C° 0 mm 4 mps 719 mmHg 33%
    05:00 +13°C° 0 mm 4 mps 719 mmHg 37%
    06:00 +13°C° 0 mm 4 mps 720 mmHg 41%
    07:00 +13°C° 0 mm 4 mps 720 mmHg 42%
    08:00 +14°C° 0 mm 5 mps 721 mmHg 44%
    09:00 +15°C° 0 mm 5 mps 721 mmHg 45%
    10:00 +17°C° 0 mm 5 mps 721 mmHg 39%
    11:00 +19°C° 0 mm 4 mps 721 mmHg 33%
    12:00 +21°C° 0 mm 4 mps 720 mmHg 28%
    13:00 +22°C° 0 mm 3 mps 720 mmHg 25%
    14:00 +24°C° 0 mm 3 mps 719 mmHg 22%
    15:00 +25°C° 0 mm 2 mps 719 mmHg 19%
    16:00 +24°C° 0 mm 3 mps 719 mmHg 20%
    17:00 +22°C° 0 mm 3 mps 719 mmHg 21%
    18:00 +21°C° 0 mm 3 mps 719 mmHg 22%
    19:00 +20°C° 0 mm 4 mps 720 mmHg 25%
    20:00 +19°C° 0 mm 4 mps 720 mmHg 27%
    21:00 +17°C° 0 mm 5 mps 721 mmHg 30%
    22:00 +16°C° 0 mm 5 mps 721 mmHg 32%
    23:00 +16°C° 0 mm 5 mps 721 mmHg 35%

    22 August, Tuesday

    Time Temperature Precipitation Wind Pressure Humidity
    00:00 +15°C° 0 mm 5 mps 721 mmHg 37%
    01:00 +14°C° 0 mm 5 mps 720 mmHg 40%
    02:00 +14°C° 0 mm 5 mps 720 mmHg 44%
    03:00 +13°C° 0 mm 4 mps 720 mmHg 47%
    04:00 +13°C° 0 mm 4 mps 720 mmHg 49%
    05:00 +12°C° 0 mm 4 mps 721 mmHg 51%
    06:00 +12°C° 0 mm 4 mps 721 mmHg 53%
    07:00 +13°C° 0 mm 5 mps 721 mmHg 50%
    08:00 +15°C° 0 mm 6 mps 722 mmHg 47%
    09:00 +16°C° 0 mm 7 mps 722 mmHg 43%
    10:00 +18°C° 0 mm 7 mps 722 mmHg 39%
    11:00 +21°C° 0 mm 6 mps 722 mmHg 34%
    12:00 +23°C° 0 mm 6 mps 721 mmHg 29%
    13:00 +25°C° 0 mm 5 mps 721 mmHg 27%
    14:00 +26°C° 0 mm 4 mps 720 mmHg 26%
    15:00 +27°C° 0 mm 4 mps 720 mmHg 24%
    16:00 +26°C° 0 mm 3 mps 720 mmHg 26%
    17:00 +25°C° 0 mm 3 mps 720 mmHg 27%
    18:00 +24°C° 0 mm 3 mps 720 mmHg 29%
    19:00 +22°C° 0 mm 4 mps 721 mmHg 31%
    20:00 +21°C° 0 mm 4 mps 721 mmHg 33%
    21:00 +20°C° 0 mm 5 mps 722 mmHg 35%
    22:00 +19°C° 0 mm 5 mps 722 mmHg 36%
    23:00 +19°C° 0 mm 6 mps 721 mmHg 38%

    23 August, Wednesday

    Time Temperature Precipitation Wind Pressure Humidity
    00:00 +17°C° 0 mm 6 mps 721 mmHg 39%
    01:00 +16°C° 0 mm 6 mps 721 mmHg 40%
    02:00 +16°C° 0 mm 6 mps 721 mmHg 41%
    03:00 +15°C° 0 mm 6 mps 721 mmHg 41%
    04:00 +14°C° 0 mm 6 mps 721 mmHg 42%
    05:00 +14°C° 0 mm 6 mps 722 mmHg 42%
    06:00 +14°C° 0 mm 6 mps 722 mmHg 42%
    07:00 +15°C° 0 mm 6 mps 722 mmHg 39%
    08:00 +16°C° 0 mm 7 mps 723 mmHg 36%
    09:00 +17°C° 0 mm 8 mps 723 mmHg 33%
    10:00 +21°C° 0 mm 7 mps 723 mmHg 30%
    11:00 +23°C° 0 mm 7 mps 723 mmHg 27%
    12:00 +26°C° 0 mm 6 mps 722 mmHg 24%
    13:00 +27°C° 0 mm 5 mps 722 mmHg 23%
    14:00 +27°C° 0 mm 5 mps 722 mmHg 22%
    15:00 +28°C° 0 mm 4 mps 721 mmHg 21%
    16:00 +27°C° 0 mm 4 mps 721 mmHg 23%
    17:00 +26°C° 0 mm 4 mps 722 mmHg 24%
    18:00 +25°C° 0 mm 4 mps 722 mmHg 26%
    19:00 +23°C° 0 mm 5 mps 722 mmHg 27%
    20:00 +22°C° 0 mm 6 mps 723 mmHg 28%
    21:00 +21°C° 0 mm 6 mps 723 mmHg 29%
    22:00 +20°C° 0 mm 6 mps 723 mmHg 30%
    23:00 +19°C° 0 mm 6 mps 723 mmHg 30%

    24 August, Thursday

    Time Temperature Precipitation Wind Pressure Humidity
    00:00 +17°C° 0 mm 6 mps 723 mmHg 30%
    01:00 +17°C° 0 mm 6 mps 723 mmHg 31%
    02:00 +16°C° 0 mm 5 mps 723 mmHg 31%
    03:00 +15°C° 0 mm 5 mps 722 mmHg 32%
    04:00 +15°C° 0 mm 5 mps 723 mmHg 33%
    05:00 +14°C° 0 mm 4 mps 723 mmHg 33%
    06:00 +13°C° 0 mm 4 mps 723 mmHg 34%
    07:00 +15°C° 0 mm 5 mps 724 mmHg 32%
    08:00 +16°C° 0 mm 6 mps 724 mmHg 29%
    09:00 +17°C° 0 mm 7 mps 724 mmHg 27%
    10:00 +20°C° 0 mm 7 mps 724 mmHg 25%
    11:00 +22°C° 0 mm 7 mps 724 mmHg 23%
    12:00 +24°C° 0 mm 7 mps 723 mmHg 20%
    13:00 +26°C° 0 mm 6 mps 723 mmHg 20%
    14:00 +27°C° 0 mm 6 mps 722 mmHg 19%
    15:00 +28°C° 0 mm 5 mps 722 mmHg 19%
    16:00 +27°C° 0 mm 5 mps 722 mmHg 21%
    17:00 +26°C° 0 mm 5 mps 722 mmHg 22%
    18:00 +25°C° 0 mm 4 mps 722 mmHg 24%
    19:00 +22°C° 0 mm 5 mps 722 mmHg 25%
    20:00 +21°C° 0 mm 5 mps 723 mmHg 27%
    21:00 +20°C° 0 mm 5 mps 723 mmHg 29%
    22:00 +19°C° 0 mm 6 mps 723 mmHg 30%
    23:00 +19°C° 0 mm 6 mps 723 mmHg 31%
    Show more